Printer-friendly version

IAU Minor Planet Center

Minor Planet Center

MPEC 2006-S37 : 2006 SU49

The following Minor Planet Electronic Circular may be linked-to from your own Web pages, but must not otherwise be redistributed electronically.


Read MPEC 2006-S36 Read MPEC 2006-S38


M.P.E.C. 2006-S37                                Issued 2006 Sept. 21, 10:45 UT

     The Minor Planet Electronic Circulars contain information on unusual
         minor planets and routine data on comets.  They are published
   on behalf of Commission 20 of the International Astronomical Union by the
          Minor Planet Center, Smithsonian Astrophysical Observatory,
                          Cambridge, MA 02138, U.S.A.

                  Supported in part by the Brinson Foundation
                  Supported in part by the TABASGO Foundation
             Prepared using the Tamkin Foundation Computer Network

                              MPC@CFA.HARVARD.EDU
          URL http://cfa-www.harvard.edu/iau/mpc.html  ISSN 1523-6714

                                   2006 SU49

Observations:
     K06S49U* C2006 09 20.16543 23 31 10.99 +02 06 19.0          20.2 V ES037691
     K06S49U  C2006 09 20.18290 23 31 09.07 +02 06 09.2          20.2 V ES037691
     K06S49U  C2006 09 20.20031 23 31 07.15 +02 05 59.0          20.5 V ES037691
     K06S49U  C2006 09 20.96120 23 29 45.83 +01 58 37.1                 ES037J95
     K06S49U IC2006 09 20.96543 23 29 45.42 +01 58 33.9          19.9 R ES037J95
     K06S49U 5C2006 09 21.27269 23 29 12.75 +01 55 39.3          20.0 R ES037673
     K06S49U 5C2006 09 21.27986 23 29 12.00 +01 55 35.3                 ES037673
     K06S49U 5C2006 09 21.28684 23 29 11.22 +01 55 30.9                 ES037673
     K06S49U 5C2006 09 21.29086 23 29 10.84 +01 55 28.8                 ES037673

Observer details:
673 Table Mountain Observatory, Wrightwood.  Observer J. Young.  0.61-m f/16
    Cassegrain + CCD.
691 Steward Observatory, Kitt Peak.  Observer J. V. Scotti.  0.9-m f/3
    reflector + CCD.
J95 Great Shefford.  Observer P. Birtwhistle.  0.40-m f/6.0 Schmidt-Cassegrain
    + CCD.

Orbital elements:
2006 SU49                                           PHA, Earth MOID = 0.0434 AU
Epoch 2006 Sept. 22.0 TT = JDT 2454000.5                MPC
M 231.31431              (2000.0)            P               Q
n   0.60571741     Peri.  201.55165     -0.80965651     -0.58588794
a   1.3834263      Node   302.53610     +0.54428016     -0.72754973
e   0.2558645      Incl.    2.34673     +0.21958013     -0.35694076
P   1.63           H   19.8           G   0.15           U   9
Residuals in seconds of arc
060920 691  0.0   0.0     060920 J95  0.4-  0.3+    060921 673  0.1-  0.3+
060920 691  0.0   0.2+    060920 J95  0.4+  0.5-    060921 673  0.2-  0.0
060920 691  0.0   0.1-    060921 673  0.8-  0.1+    060921 673  0.8+  0.2+

Ephemeris:
2006 SU49                a,e,i = 1.38, 0.26, 2                   q = 1.0295
Date    TT    R. A. (2000) Decl.     Delta      r     Elong.  Phase     V
2006 09 22    23 27.92   +01 48.7    0.647    1.648   172.7     4.4    20.3
2006 10 02    23 11.02   +00 10.5    0.650    1.626   159.6    12.4    20.7
2006 10 12    22 57.41   -01 17.4    0.673    1.602   146.3    20.2    21.0
2006 10 22    22 48.82   -02 22.1    0.711    1.575   134.1    27.0    21.3
2006 11 01    22 45.82   -02 57.2    0.760    1.547   123.3    32.4    21.5
2006 11 11    22 48.10   -03 02.1    0.816    1.516   113.8    36.7    21.8
2006 11 21    22 54.94   -02 39.3    0.873    1.483   105.5    39.9    21.9

Timothy B. Spahr             (C) Copyright 2006 MPC           M.P.E.C. 2006-S37

Read MPEC 2006-S36 Read MPEC 2006-S38


Our Web policy. Index to the CBAT/MPC/ICQ pages.


Valid HTML 4.01!